Marietta, GA

9:46 PM EST on January 18, 2018 (GMT -0500)
Dobbins Air Force Base

Weather History for KMGE - April, 2014

Change the Weather History Date:

Wednesday, April 16, 2014

  Actual Average Record
Temperature  
Mean Temperature 46 °F -  
Max Temperature 61 °F 69 °F 84 °F (2006)
Min Temperature 32 °F 49 °F 32 °F (2014)
Degree Days  
Heating Degree Days 18    
Moisture  
Dew Point 27 °F    
Average Humidity 50    
Maximum Humidity 78    
Minimum Humidity 27    
Precipitation  
Precipitation 0.00 in - - ()
Sea Level Pressure  
Sea Level Pressure 30.24 in    
Wind  
Wind Speed 8 mph (ENE)    
Max Wind Speed 14 mph    
Max Gust Speed 20 mph    
Visibility 10 miles    
Events      
Averages and records for this station are not official NWS values.
T = Trace of Precipitation, MM = Missing Value Source: NWS Daily Summary

Daily Weather History Graph

Daily Weather History Graph

Search for Another Location

Airport or City:

Trip Planner

Search our weather history database for the weather conditions in past years. The results will help you decide how hot, cold, wet, or windy it might be!

Date:

Astronomy

Apr. 16, 2014 Rise Set
Actual Time 7:06 AM EDT 8:10 PM EDT
Civil Twilight 6:40 AM EDT 8:35 PM EDT
Nautical Twilight 6:09 AM EDT 9:06 PM EDT
Astronomical Twilight 5:38 AM EDT 9:38 PM EDT
Moon 9:48 PM EDT (4/16) 7:55 AM EDT (4/16)
Length of Visible Light 13h 55m
Length of Day
13h 04m
Full, 98% of the Moon is Illuminated
Apr 16
Full
Apr 22
Last Quarter
Apr 29
New
May 6
First Quarter
May 14
Full

Hourly Weather History & Observations

Time (EDT) Temp. Windchill Dew Point Humidity Pressure Visibility Wind Dir Wind Speed Gust Speed Precip Events Conditions
12:58 AM 37.6 °F 31.6 °F 26.4 °F 64% 30.13 in 10.0 mi NNW 8.1 mph - N/A   Clear
1:58 AM 36.7 °F 32.0 °F 26.2 °F 66% 30.14 in 10.0 mi NW 5.8 mph - N/A   Clear
2:58 AM 35.6 °F 32.8 °F 26.4 °F 69% 30.16 in 10.0 mi NW 3.5 mph - N/A   Clear
3:58 AM 34.7 °F 30.6 °F 26.4 °F 72% 30.18 in 10.0 mi NNW 4.6 mph - N/A   Clear
4:58 AM 34.0 °F 28.8 °F 26.4 °F 74% 30.18 in 10.0 mi NNW 5.8 mph - N/A   Clear
5:58 AM 33.4 °F - 26.2 °F 75% 30.22 in 10.0 mi NNW 2.3 mph - N/A   Clear
6:58 AM 32.7 °F 29.6 °F 26.4 °F 78% 30.24 in 10.0 mi NNE 3.5 mph - N/A   Clear
7:58 AM 33.8 °F 30.8 °F 27.3 °F 77% 30.27 in 10.0 mi NNE 3.5 mph - N/A   Clear
8:58 AM 38.7 °F 34.3 °F 27.9 °F 65% 30.28 in 10.0 mi East 5.8 mph - N/A   Clear
9:55 AM 43.3 °F 38.1 °F 27.5 °F 54% 30.29 in 10.0 mi East 9.2 mph - N/A   Clear
10:58 AM 47.1 °F - 26.1 °F 44% 30.31 in 10.0 mi East 11.5 mph - N/A   Clear
11:58 AM 49.8 °F - 26.4 °F 40% 30.32 in 10.0 mi East 10.4 mph - N/A   Clear
12:58 PM 53.8 °F - 25.3 °F 33% 30.30 in 10.0 mi East 13.8 mph 19.6 mph N/A   Clear
1:58 PM 56.3 °F - 24.3 °F 29% 30.27 in 10.0 mi ESE 10.4 mph 18.4 mph N/A   Clear
2:58 PM 58.3 °F - 26.1 °F 29% 30.26 in 10.0 mi East 12.7 mph 18.4 mph N/A   Clear
3:58 PM 60.4 °F - 27.1 °F 28% 30.24 in 10.0 mi ESE 8.1 mph - N/A   Clear
4:58 PM 61.5 °F - 27.1 °F 27% 30.22 in 10.0 mi SE 12.7 mph - N/A   Clear
5:58 PM 60.8 °F - 27.5 °F 28% 30.22 in 10.0 mi East 10.4 mph - N/A   Clear
6:58 PM 59.0 °F - 27.3 °F 30% 30.24 in 10.0 mi East 10.4 mph - N/A   Partly Cloudy
7:58 PM 56.5 °F - 27.3 °F 33% 30.26 in 10.0 mi ESE 11.5 mph - N/A   Partly Cloudy
8:58 PM 52.0 °F - 29.1 °F 41% 30.27 in 10.0 mi East 8.1 mph - N/A   Partly Cloudy
9:58 PM 51.1 °F - 29.3 °F 43% 30.27 in 10.0 mi East 11.5 mph - N/A   Clear
10:58 PM 50.0 °F - 29.7 °F 46% 30.30 in 10.0 mi East 10.4 mph - N/A   Clear
11:58 PM 48.6 °F - 30.4 °F 50% 30.31 in 10.0 mi East 10.4 mph - N/A   Clear